Voltar ao catálogo

STARLINK-37258

AtivoComunicaçõesVLEO
NORAD 68951·PAYLOAD·🇺🇸 United States

Lançado May 1, 2026 de Cape Canaveral Space Force Station

Loading…

Próximas Passagens (próximas 24 horas)

TLE

AtualizadoSource: CelesTrak SupGP

Época: Sep 15, 2026, 03:35 UTC

1 68951C 26099A   26258.14979167 -.00011268  00000+0 -33294-3 0  2583
2 68951  53.1573 101.0675 0001168  85.9918 117.0751 15.34394898    18

Acompanhe STARLINK-37258 em tempo real com AllMySat

Download on the App Store